Location: Brno
(49.2000°N, 16.6330°E)
Time: 17:43:34
(UTC+02:00)

Transit 4A - Pass Details

Date: 29 July 2021
Orbit: 871 x 974 km, 66.8° (Epoch: 16 September)

Event Time Altitude Azimuth Distance (km) Brightness Sun altitude
Rises 09:01:34 0° 325° (NW) 3,471 10.5 33.7°
Reaches altitude 10° 09:04:09 10° 331° (NNW) 2,534 10.0 34.2°
Maximum altitude 09:09:47 47° 45° (NE) 1,156 9.3 35.1°
Drops below altitude 10° 09:15:30 10° 119° (ESE) 2,565 11.5 36.0°
Sets 09:18:07 0° 125° (SE) 3,517 11.8 36.4°
